Dewpoint
53 52 52 52 53 52 52 53 53 53 53 54 54 54 55 55 55 56 57 57 57 58 58 59 59 60 59 60 60 60 59 47 41 37 36 44 55 63 65 66 66 66 58 33 26 22 19 20 18 22 27 25 31 31 34 35 31 36 24 23 21 23 20 24 20 20 23 17 18 19 19 16 17 20 22 23 22 23 24 24 25 27 28 29 31 37 38 55
52 52 51 52 52 52 52 52 53 53 53 53 54 54 54 55 55 56 56 57 57 57 58 59 59 59 60 60 60 60 57 49 37 37 39 56 63 63 65 66 65 63 57 32 22 21 18 18 20 22 21 17 35 27 33 30 32 28 26 23 16 23 21 21 20 20 16 18 16 19 20 19 17 19 21 18 19 20 20 21 23 23 26 30 33 40 35 57
52 51 51 52 52 52 52 53 53 53 53 53 54 54 54 54 55 56 56 57 57 57 58 59 59 59 60 60 60 59 54 42 32 28 37 56 61 64 65 65 65 59 41 32 30 22 19 18 21 20 23 18 25 22 30 24 30 24 28 17 17 30 20 22 19 19 20 19 18 19 20 20 19 20 22 18 18 21 17 16 22 21 21 26 41 44 46 58
52 51 51 52 51 51 52 52 52 52 52 53 53 53 53 54 55 55 56 56 57 57 58 58 59 59 59 60 60 58 48 31 24 32 43 57 63 63 63 64 62 52 39 31 29 27 23 21 20 21 24 19 25 29 20 25 25 25 18 13 20 21 20 21 22 20 20 20 19 19 20 19 21 20 21 18 17 17 17 18 16 17 19 23 40 45 54 56
52 51 50 52 51 51 52 52 51 52 52 52 53 53 53 54 55 55 56 56 57 57 58 58 59 59 59 60 59 56 46 11 23 33 48 60 63 63 63 63 56 42 37 28 25 24 22 21 20 25 24 16 25 21 20 24 26 25 18 22 21 22 22 22 22 24 21 22 20 20 18 19 22 21 21 20 14 12 14 17 21 19 21 26 38 47 53 55
51 51 51 52 51 51 51 51 51 51 51 51 52 53 53 53 54 55 55 56 57 57 58 58 59 59 60 59 58 50 34 -2 28 43 58 59 62 61 61 59 52 34 32 29 28 28 23 20 19 20 18 17 19 12 20 23 25 9 21 21 22 22 21 23 23 24 22 21 19 19 20 21 20 20 22 20 18 17 21 23 24 23 24 26 35 49 52 54
51 51 52 52 51 50 51 51 51 50 51 51 52 52 53 53 54 54 55 55 56 57 58 58 59 59 59 57 52 39 27 27 39 48 58 59 58 54 58 54 46 35 32 29 27 26 25 19 20 23 22 22 20 21 22 22 24 23 16 21 22 23 22 24 24 25 22 20 20 21 21 20 20 18 22 21 21 20 22 24 28 29 29 28 40 47 50 53
51 51 51 51 51 49 50 51 51 51 50 51 52 52 53 53 53 54 55 55 56 57 58 58 59 59 58 49 44 33 34 28 41 48 56 57 45 44 51 40 38 40 32 30 26 22 26 17 17 24 18 13 20 20 22 22 21 19 19 22 24 24 25 25 24 22 22 21 22 23 20 20 21 21 22 20 21 21 22 27 29 29 29 28 32 45 48 53
52 51 52 51 50 51 49 51 52 51 51 51 51 52 53 53 53 54 54 55 56 57 58 58 59 58 56 44 32 21 23 40 45 49 51 47 41 41 48 38 35 32 33 33 30 29 26 22 21 22 15 20 22 20 21 19 17 24 23 23 24 24 25 24 23 23 24 23 23 21 20 22 23 23 21 21 21 24 27 25 28 29 28 28 29 36 47 50
52 51 51 52 52 51 51 51 52 51 52 53 52 52 54 53 53 54 54 55 56 57 57 58 58 56 48 41 31 9 33 50 52 49 45 44 36 38 39 41 35 33 32 31 28 28 26 23 23 22 23 22 23 21 25 23 16 24 24 24 24 25 25 26 24 24 24 25 23 21 21 21 23 22 15 22 27 28 27 25 29 28 26 27 29 30 37 46
53 52 52 52 52 51 52 52 52 53 52 52 52 53 53 53 54 54 55 55 56 57 57 58 58 52 48 30 13 6 43 52 49 44 43 43 37 36 39 40 37 33 31 33 32 33 29 27 32 25 29 18 23 23 24 23 24 25 24 24 24 25 25 25 24 25 25 22 24 22 21 23 22 23 20 23 28 29 26 25 27 29 28 27 29 31 33 34
54 53 52 52 51 51 51 51 51 52 52 52 53 53 53 53 54 54 54 55 56 57 57 57 57 51 35 30 16 28 33 48 47 42 44 44 40 43 45 39 38 42 34 28 34 40 39 31 29 22 15 24 20 24 23 25 25 24 24 20 23 24 23 25 24 25 26 22 24 23 22 21 22 21 23 26 27 28 27 26 26 27 28 31 32 31 32 33
55 54 53 53 52 52 52 52 52 52 53 53 53 53 53 54 54 55 55 56 56 57 58 58 57 52 39 14 30 39 42 44 46 42 40 43 42 40 38 39 36 34 36 29 32 41 37 31 28 22 25 23 23 21 25 27 25 25 25 24 20 21 20 25 27 25 24 23 24 24 18 16 20 22 24 25 25 26 25 25 25 27 28 29 31 30 31 32
56 55 54 54 54 53 52 52 53 53 53 53 53 54 54 54 55 55 56 56 57 57 58 58 56 46 27 21 40 43 45 50 44 40 44 43 36 41 41 40 37 34 42 35 37 36 34 29 28 25 28 23 22 29 26 26 26 22 23 25 26 20 18 25 26 24 23 24 24 23 21 16 20 21 25 27 27 25 23 23 24 25 27 28 32 32 32 32
56 56 55 55 55 54 54 54 53 53 53 54 54 54 54 55 55 56 56 57 57 57 58 56 50 34 15 24 35 43 55 46 40 44 45 38 34 36 32 35 35 34 33 34 33 32 30 34 29 25 24 27 28 25 23 24 24 23 19 21 27 20 21 23 27 25 22 23 24 23 24 20 20 21 25 27 27 26 24 24 24 25 26 27 29 29 29 30
56 56 56 56 55 55 55 55 55 55 54 54 54 54 55 56 56 56 57 57 58 57 57 56 43 35 13 10 41 55 44 40 39 46 46 43 44 36 41 36 36 32 32 32 34 33 33 31 26 26 25 25 24 23 22 22 24 24 22 29 23 25 23 19 25 25 25 23 24 23 19 20 17 21 24 27 26 26 25 24 26 25 26 26 26 28 28 30
56 56 56 56 56 56 56 55 56 56 54 54 54 55 56 56 56 57 57 57 55 54 55 38 34 31 10 26 36 31 38 44 45 45 43 39 42 37 36 34 30 30 32 32 35 34 32 29 31 31 28 24 26 25 21 24 22 23 26 20 29 20 19 14 25 25 28 23 22 23 22 21 20 22 23 25 26 26 24 24 24 25 26 27 28 28 27 28
57 57 56 56 56 56 56 56 56 56 54 54 55 55 56 56 57 55 57 53 54 50 45 40 42 28 15 26 24 26 44 44 46 40 43 36 37 33 33 30 31 33 32 29 32 29 32 29 32 26 27 26 24 23 19 12 18 20 22 22 21 23 23 20 20 24 24 22 22 22 22 22 22 23 23 23 26 24 24 24 24 24 25 25 27 27 26 27
57 57 56 56 56 56 56 56 56 55 55 55 54 55 56 56 55 52 44 41 27 25 19 27 15 12 17 18 39 43 46 44 46 43 35 38 38 36 35 35 37 30 33 29 29 29 33 33 34 28 24 25 22 20 16 19 18 15 21 19 23 17 21 19 22 26 24 22 22 22 22 21 22 23 23 24 24 25 24 25 25 25 25 25 26 27 28 30
57 57 57 56 56 56 57 56 56 55 55 53 53 46 45 38 39 34 38 38 26 22 24 26 24 28 34 32 40 43 45 45 38 42 43 41 37 33 32 33 42 34 30 28 33 30 35 29 26 25 23 24 24 24 19 21 23 26 29 27 20 20 19 24 25 27 27 24 23 23 23 23 24 24 24 25 25 26 25 25 26 27 27 28 28 27 30 30
58 57 57 57 57 57 57 56 55 54 54 53 49 32 17 28 19 13 28 32 39 33 35 33 33 27 31 38 43 41 36 38 40 42 41 40 35 33 31 32 31 28 32 32 34 31 30 26 27 26 24 25 25 23 24 24 25 20 23 24 22 29 18 24 25 27 27 24 21 24 23 24 23 23 24 24 24 24 24 25 25 25 26 27 30 31 32 31
58 58 57 57 57 57 57 56 55 55 54 53 47 27 40 27 33 38 30 16 32 41 41 40 40 36 38 38 42 42 39 35 38 40 44 39 34 31 31 30 28 22 33 34 31 30 28 26 24 26 26 26 25 25 24 23 25 28 22 26 26 22 28 25 24 27 27 24 21 23 23 23 23 24 25 25 25 25 26 26 26 26 27 28 29 30 30 33
58 58 58 57 57 57 56 56 55 55 53 50 49 45 47 52 51 51 40 28 27 36 39 38 29 33 36 37 39 40 34 31 29 39 39 39 33 32 31 28 27 30 31 28 25 30 26 26 27 27 26 26 25 25 25 27 27 26 27 23 19 29 19 11 26 27 26 24 24 26 25 24 25 25 26 26 26 26 28 28 29 30 29 28 28 29 32 32
58 58 58 57 57 57 57 55 56 53 51 49 48 48 49 52 50 45 39 20 21 25 33 36 32 31 33 27 37 37 32 30 30 34 42 35 31 35 30 28 29 29 26 28 23 23 20 28 30 27 28 24 25 26 25 24 22 32 31 27 24 27 24 19 17 26 27 27 29 26 26 25 25 24 23 26 29 29 29 29 29 31 34 33 36 37 35 31
58 57 57 57 57 57 56 55 53 52 50 50 50 51 51 53 52 47 30 18 22 23 35 32 40 39 31 44 42 34 35 34 33 35 42 35 32 30 29 31 28 26 26 30 27 28 24 27 29 27 29 29 28 25 29 29 22 27 33 29 23 24 22 24 27 25 23 25 29 28 13 17 22 24 23 23 24 25 27 29 29 30 31 34 31 32 34 37
57 57 57 57 57 57 56 53 52 51 51 50 50 50 51 51 51 48 25 20 18 24 27 24 37 24 41 37 41 38 29 20 34 38 38 40 40 31 30 29 29 24 28 29 26 30 26 30 32 29 29 32 30 26 33 30 21 26 20 31 26 25 27 28 27 27 20 15 27 27 15 12 19 18 16 18 21 18 22 28 25 24 25 28 32 34 33 34
57 57 57 57 57 56 53 52 52 51 46 43 48 50 50 51 51 46 21 20 14 30 24 33 27 28 39 35 38 19 12 17 39 39 37 41 33 34 27 27 28 30 30 29 26 24 30 29 31 33 30 32 29 24 30 27 25 19 34 32 29 27 28 30 28 29 23 30 31 28 25 20 20 19 22 24 22 21 24 26 27 28 29 29 28 30 33 34
57 57 57 57 57 55 55 51 51 49 45 48 50 51 51 52 48 39 21 16 16 33 29 26 29 38 37 37 36 14 23 31 27 35 39 40 37 30 27 28 25 27 30 28 21 31 30 33 32 31 32 29 25 28 35 28 23 25 33 33 31 27 31 32 30 27 29 24 20 26 34 18 19 22 26 27 23 23 23 22 24 26 28 27 30 31 33 33
56 57 57 57 56 56 54 51 50 49 49 51 51 51 51 47 39 24 20 15 28 21 38 24 37 35 36 34 26 28 27 34 22 35 42 37 38 32 25 29 27 29 29 28 21 29 25 34 31 31 29 25 31 31 31 29 23 32 32 33 32 33 33 33 29 29 27 21 20 25 28 19 11 24 21 26 24 20 18 18 19 22 25 30 30 32 33 32
55 56 57 57 56 55 54 54 53 52 50 51 51 51 48 41 23 17 10 14 31 18 29 30 28 27 33 27 24 29 25 31 36 36 35 33 34 33 30 32 29 30 32 29 31 30 30 33 37 30 28 31 31 32 34 33 33 34 35 32 32 32 31 30 30 28 25 18 20 25 26 18 8 22 18 21 24 18 15 16 18 24 29 28 30 33 37 34
54 55 56 56 54 54 54 51 53 52 52 52 51 49 42 37 23 15 14 18 23 29 29 28 27 34 29 26 23 28 31 32 34 34 33 34 31 30 29 27 31 32 30 30 30 34 32 33 34 36 33 33 32 33 34 34 35 35 33 31 30 27 28 28 27 26 19 14 24 27 28 23 11 12 21 20 20 21 22 16 7 14 19 33 34 33 33 33
53 54 56 56 57 55 52 51 53 52 52 53 52 46 35 23 26 15 16 18 16 26 27 27 31 32 27 29 31 27 24 33 34 33 31 32 32 28 27 22 29 24 23 24 25 33 30 31 34 34 36 32 36 31 31 34 33 33 31 27 18 16 16 17 25 18 19 14 24 24 26 23 20 11 20 19 20 21 24 23 22 22 22 27 30 35 36 38
53 53 54 56 55 54 55 55 53 52 53 51 45 44 36 25 21 22 23 21 19 31 26 33 30 31 29 27 27 29 33 25 33 33 34 35 32 32 34 28 30 26 13 25 26 23 26 36 33 34 34 33 32 24 29 27 30 30 26 23 17 11 14 12 17 16 13 18 19 20 26 20 20 20 21 19 19 19 23 25 29 28 28 29 33 35 32 39
53 53 54 55 56 56 55 53 53 54 53 50 44 39 34 27 25 33 28 25 28 31 32 33 31 31 28 24 30 29 25 28 32 32 33 33 32 31 30 32 29 28 25 25 20 22 16 16 26 31 27 34 31 22 28 26 30 28 33 26 20 16 16 13 11 7 11 14 19 20 24 23 20 12 23 22 23 26 26 26 30 32 32 33 35 35 35 35
52 51 53 54 55 56 54 54 53 53 51 48 41 33 28 28 33 31 30 30 32 32 33 33 31 31 29 31 32 31 30 25 33 33 33 32 30 31 30 27 31 28 33 17 26 25 21 19 27 32 36 32 32 33 33 34 33 33 35 30 25 21 18 5 17 15 14 16 20 22 20 21 20 24 26 25 27 27 28 29 30 29 29 33 32 33 34 33
50 50 52 51 52 55 54 54 54 53 49 44 37 31 30 32 31 39 37 38 33 33 31 31 33 28 30 29 32 30 33 29 31 33 32 33 33 30 32 30 30 28 22 16 27 19 20 17 33 34 33 31 31 31 29 29 18 29 29 26 25 27 19 20 21 18 21 17 14 25 18 19 20 15 19 20 19 21 23 25 25 27 30 33 33 35 34 34
50 50 46 50 51 55 54 54 54 52 49 43 35 31 33 36 39 39 41 34 34 34 32 25 28 25 28 25 30 30 30 34 34 31 27 33 28 31 32 31 33 29 24 19 25 32 20 23 30 32 29 32 32 34 34 34 33 30 25 27 32 32 31 19 12 21 17 13 16 19 15 9 11 11 19 21 21 19 20 20 21 25 31 30 35 37 37 37
47 48 45 46 50 55 54 54 54 50 45 40 33 35 39 35 40 40 41 37 37 39 30 27 30 30 29 26 27 30 31 26 29 31 28 28 25 32 31 29 31 29 28 27 19 28 25 16 28 32 33 34 33 34 30 35 36 29 28 37 23 21 19 21 18 14 15 16 17 16 15 16 17 13 17 15 20 20 20 22 23 22 24 28 31 34 36 37
46 45 39 43 48 55 54 54 51 47 42 36 34 35 39 38 42 38 39 39 37 36 34 34 30 33 33 27 30 30 30 25 31 29 25 29 24 30 28 30 32 30 30 26 21 27 29 20 23 32 31 33 33 31 26 29 34 35 33 28 34 25 20 22 18 23 15 13 16 19 13 10 26 17 16 13 12 18 16 21 21 22 23 26 29 34 36 38
43 41 39 45 51 54 53 53 48 44 39 33 35 36 42 37 39 38 38 36 37 37 39 37 37 33 34 31 32 28 32 30 31 31 27 31 25 30 28 30 27 33 30 28 26 35 22 23 16 30 33 32 28 30 27 29 27 27 26 25 28 27 29 26 24 20 14 13 12 11 11 10 16 19 16 12 13 16 18 23 31 32 30 31 33 34 37 37
46 38 38 49 53 54 52 47 42 38 37 39 37 38 39 37 39 38 38 37 39 39 38 37 39 35 37 38 30 35 34 33 33 30 30 28 27 25 32 30 33 31 31 31 29 29 26 19 18 29 28 27 27 33 32 31 28 27 25 25 25 26 24 21 19 25 23 17 17 13 15 17 18 23 18 15 17 20 26 27 29 30 29 33 38 38 37 39
40 30 34 48 53 52 48 40 40 41 39 37 36 37 37 42 38 38 38 38 39 35 38 35 37 37 38 37 39 35 34 34 36 35 33 28 29 27 32 31 30 32 30 28 28 32 26 29 23 27 28 28 32 32 32 32 35 32 30 26 29 27 25 22 18 24 25 22 23 22 17 18 21 24 24 22 24 22 25 28 28 28 30 31 35 38 37 36
39 33 46 47 53 51 45 39 41 39 37 38 39 39 41 39 39 39 37 39 37 38 40 36 34 35 36 35 36 36 36 34 36 34 37 35 32 28 35 31 33 33 34 32 33 33 31 27 23 23 30 32 32 33 34 32 33 31 31 33 30 26 27 24 22 25 22 23 23 21 19 21 23 28 27 28 29 30 30 30 31 30 31 33 34 37 38 37
37 35 37 46 51 50 43 33 34 36 38 39 39 37 40 39 39 37 36 37 36 36 35 38 38 33 34 36 35 33 35 31 36 35 34 36 33 33 31 32 32 34 31 30 28 33 26 30 27 22 23 25 27 31 31 33 33 30 29 31 31 32 32 31 28 26 22 26 24 20 18 20 32 29 31 29 28 27 27 28 31 33 33 35 34 35 36 36
39 40 40 41 48 46 38 38 34 36 37 36 37 36 37 38 41 37 36 36 37 36 37 36 36 38 35 37 35 35 36 33 32 35 35 36 34 36 33 34 34 31 35 39 36 35 29 31 26 22 20 19 19 21 23 27 29 30 34 34 33 31 31 26 24 24 22 25 27 22 19 19 23 28 27 27 28 27 28 29 29 33 33 33 38 38 36 36
35 26 35 39 41 41 40 38 36 37 36 36 35 36 37 36 41 40 38 37 36 38 35 41 41 38 36 37 36 35 35 36 34 34 35 34 35 36 36 34 34 34 35 39 36 33 30 33 30 26 24 21 22 25 34 35 31 29 31 33 33 33 31 30 27 24 22 24 24 26 24 22 22 24 28 28 29 28 28 30 29 32 33 34 34 36 37 37
39 30 32 29 37 37 36 37 36 35 36 35 33 36 35 35 37 39 40 38 37 36 37 37 38 36 37 35 33 33 34 35 36 35 35 35 35 37 35 36 34 34 37 37 36 32 32 30 32 31 30 29 28 28 32 33 30 30 30 31 33 33 33 30 27 25 27 26 22 25 28 27 24 24 24 26 29 30 31 30 29 30 33 37 36 34 34 33
30 34 34 35 27 24 30 29 34 35 36 37 35 35 32 33 35 35 39 38 39 37 36 38 38 36 36 35 35 33 34 34 35 33 35 36 35 35 35 36 34 36 36 37 38 32 32 29 33 33 31 30 29 28 32 33 31 31 31 31 32 33 32 30 30 29 29 26 23 26 29 28 25 25 27 26 25 24 25 27 30 30 30 32 33 33 34 35
38 37 37 38 33 34 33 32 33 34 34 36 36 37 35 34 33 34 36 38 38 38 37 34 35 36 36 36 36 34 34 33 32 34 34 34 35 35 34 35 37 37 35 37 37 36 32 28 31 33 31 31 31 30 33 30 30 29 31 31 32 33 32 32 31 31 31 30 29 29 29 28 27 26 27 27 29 28 27 28 30 32 31 34 34 34 34 34
32 33 33 36 36 34 35 35 33 32 31 34 33 33 34 35 34 35 37 38 35 37 38 35 34 36 37 37 37 36 35 35 34 33 36 34 33 35 33 33 36 38 35 34 37 38 33 29 34 34 31 31 31 32 33 32 31 28 31 32 31 33 33 33 33 33 33 31 31 31 31 29 29 29 29 30 30 32 30 29 28 31 35 34 34 34 34 35
41 37 40 34 31 33 33 33 34 33 31 33 32 33 33 33 34 35 36 38 37 36 38 36 36 36 37 37 38 37 37 37 37 36 37 36 33 36 33 33 34 34 35 34 34 35 34 30 35 33 30 30 32 32 32 32 31 30 29 32 32 31 31 32 32 33 31 30 31 32 30 29 30 31 30 30 31 30 30 31 30 32 31 32 33 33 33 34
41 41 40 36 28 32 32 34 33 33 28 31 33 32 33 33 34 34 32 36 36 37 37 38 39 39 37 37 37 37 39 41 41 40 39 40 40 42 39 42 38 35 32 34 35 34 33 31 30 30 29 30 32 33 32 31 30 28 29 29 30 31 31 32 33 33 32 32 30 29 28 30 30 31 30 30 31 31 30 29 31 32 33 33 32 33 32 31